Flag for USA

Past Weather in Casper, Wyoming, USA — Yesterday and Last 2 Weeks

Now
34 °F

Mostly cloudy.


Feels Like: 25 °F
Forecast: 35 / 14 °F
Wind: 12 mph from East

Location: Natrona County International Airport
Current Time: Oct 22, 2020 at 3:47:32 am
Latest Report: Oct 22, 2020 at 2:53 am
Visibility: 9 mi
Pressure29.78 "Hg(24.49 "Hg at 1569m altitude)
Humidity: 97%
Dew Point: 33 °F
Location of CasperLocation

Past Weather in Casper — Graph

°F

Casper Temperature Yesterday

Maximum temperature yesterday: 68 °F (at 2:53 pm)
Minimum temperature yesterday: 33 °F (at 3:53 am)
Average temperature yesterday: 44 °F

High & Low Weather Summary for the Past Weeks

 TemperatureHumidityPressure
High81 °F (Oct 8, 3:53 pm)100% (Oct 22, 2:36 am)30.40 "Hg (Oct 22, 2:36 am)
Low22 °F (Oct 16, 2:53 am)8% (Oct 8, 1:53 pm)29.42 "Hg (Oct 11, 2:53 am)
Average47 °F53%29.92 "Hg
* Reported Oct 7 2:53 am — Oct 22 2:36 am, Casper. Weather by CustomWeather, © 2020

Note: Actual official high and low records may vary slightly from our data, if they occured in-between our weather recording intervals... More about our weather records

Casper Weather History for the Previous 24 Hours

Scroll right to see more
 ConditionsComfort  
Time TempWeatherWind HumidityBarometerVisibility
2:36 am
Thu, Oct 22
33 °FLight snow. Fog.12 mph100%29.87 "Hg5 mi
2:15 am35 °FLight rain. Mostly cloudy.14 mph92%29.87 "Hg7 mi
12:53 am36 °FFog.10 mph97%29.79 "Hg3 mi
12:37 am36 °FFog.9 mph97%29.86 "Hg5 mi
12:19 am36 °FFog.10 mph97%29.87 "Hg4 mi
12:05 am36 °FMostly cloudy.12 mph97%29.87 "Hg8 mi
11:53 pm
Wed, Oct 21
36 °FOvercast.13 mph97%29.83 "Hg8 mi
11:39 pm36 °FFog.12 mph97%29.87 "Hg3 mi
11:27 pm36 °FFog.14 mph97%29.88 "Hg2 mi
11:06 pm36 °FFog.9 mph97%29.88 "Hg2 mi
10:55 pm36 °FFog.10 mph97%29.88 "Hg3 mi
10:37 pm36 °FFog.12 mph97%29.88 "Hg2 mi
10:13 pm37 °FFog.12 mph96%29.87 "Hg2 mi
9:53 pm37 °FFog.12 mph93%29.85 "Hg4 mi
8:53 pm39 °FLow clouds.15 mph82%29.85 "Hg10 mi
8:29 pm39 °FOvercast.16 mph82%29.86 "Hg10 mi
7:53 pm39 °FMostly cloudy.14 mph82%29.85 "Hg10 mi
7:13 pm38 °FPassing clouds.8 mph83%29.83 "Hg10 mi
6:53 pm37 °FPassing clouds.7 mph86%29.83 "Hg10 mi
5:53 pm44 °FPassing clouds.20 mph68%29.74 "Hg10 mi
5:01 pm54 °FSunny.20 mph47%29.71 "Hg10 mi
3:53 pm65 °FSunny.28 mph27%29.62 "Hg10 mi
3:40 pm67 °FSunny.30 mph26%29.71 "Hg10 mi
2:53 pm68 °FScattered clouds.32 mph25%29.61 "Hg10 mi
1:53 pm67 °FScattered clouds.30 mph26%29.63 "Hg10 mi
1:14 pm67 °FLight rain. Partly sunny.30 mph27%29.77 "Hg10 mi
12:53 pm60 °FPartly sunny.6 mph36%29.68 "Hg10 mi
12:36 pm56 °FScattered clouds.6 mph42%29.79 "Hg10 mi
11:53 am52 °FSunny.6 mph47%29.76 "Hg10 mi
10:53 am48 °FSunny.6 mph50%29.80 "Hg10 mi
9:53 am44 °FSunny.6 mph55%29.83 "Hg10 mi
8:53 am41 °FOvercast.7 mph62%29.86 "Hg10 mi
7:53 am36 °FOvercast.6 mph75%29.85 "Hg10 mi
6:53 am34 °FOvercast.6 mph79%29.84 "Hg10 mi
5:53 am35 °FOvercast.3 mph75%29.83 "Hg10 mi
4:53 am34 °FOvercast.No wind79%29.83 "Hg10 mi
3:53 am33 °FPassing clouds.6 mph78%29.85 "Hg10 mi
Weather by CustomWeather, © 2020

See weather overview